欧洲卫星公司-10星 (SES-10)

导读

SES 10是由SES运营的通信卫星,于北京时间2017年3月30日发射,是人类航天史上首次由回收复用的猎鹰9号一级火箭执行入轨任务,具有里程碑意义。该卫星定位于地球静止轨道,主要为美洲地区提供广播电视、通信宽带服务,接替老旧卫星扩容容量,服役至今稳定提供优质的覆盖信号,是商业复用航天时代的标志性载荷。

Basic Information
目录编号:
42432
目录名称:
SES 10
国际标识:
2017-017A
轨道中心:
EARTH
卫星名称:
欧洲卫星公司-10星
卫星全名:
欧洲卫星公司-10星 (SES-10)
卫星状态:
在轨 (已飞行3361 天)
发射日期:
2017-03-30 UTC
国别 :
(SES)
星等 :
--
Orbit Information
数据来源 国际轨道数据 AOE轨道数据
星历时间 2026-06-12T14:02:13+0800
14小时前
查看轨道信息
2026-06-10T08:00:00+0800
2天前
查看轨道信息
半长轴 42163.915km 42165.121km
偏心率 0.0002806 0.000283
轨道倾角 0.022° 0.025°
近地点辐角 53.287° 48.672°
升交点赤经 34.985° 39.631°
平近点角 195.975° 103.172°
近地点 35773.946km 35775.051km
远地点 35797.61km 35798.917km
周期 1436.055分钟 1436.117分钟
每日圈数 1.002747 1.002704
Detailed Information
卫星平台:
Eurostar-3000
平衡模式:
三轴稳定
覆盖范围:
大西洋
运营商:
欧洲卫星公司
运营商所在国:
卢森堡
制造商(研发单位):
空客防务与航天公司
制造商所在国:
法国大都会
使用方式:
暂无
Satellite Introduction
欧洲卫星公司:成立于1985年,总部设在卢森堡。该公司通过运营ASTRA、AMERICOM及 NEW SKIES卫星系统为客户提供电视、广播和多媒体直接到户的信息传送服务,是世界第二大卫星运营商。该卫星仍在工作。
2D Orbit Map
3D Orbit Map
Orbit Altitude Analysis Chart
Orbit Inclination Analysis Chart
Orbit Comprehensive Analysis Chart
View Comprehensive Chart